SB KEPS @ AMSAT $ORB10316.N 2Line Orbital Elements 10316.AMSAT
HR AMSAT ORBITAL ELEMENTS FOR AMATEUR SATELLITES IN NASA FORMAT FROM WA5QGD FORT WORTH,TX November 12, 2010 BID: ORB10316.N
DECODE 2-LINE ELSETS WITH THE FOLLOWING KEY: 1 AAAAAU 00 0 0 BBBBB.BBBBBBBB .CCCCCCCC 00000-0 00000-0 0 DDDZ 2 AAAAA EEE.EEEE FFF.FFFF GGGGGGG HHH.HHHH III.IIII JJ.JJJJJJJJKKKKKZ KEY: A-CATALOGNUM B-EPOCHTIME C-DECAY D-ELSETNUM E-INCLINATION F-RAAN G-ECCENTRICITY H-ARGPERIGEE I-MNANOM J-MNMOTION K-ORBITNUM Z-CHECKSUM
TO ALL RADIO AMATEURS BT
AO-07 1 07530U 74089B 10315.60472271 -.00000027 00000-0 10000-3 0 9255 2 07530 101.3980 325.7321 0012084 346.4894 013.5856 12.53580217646924 FO-29 1 24278U 96046B 10315.56512026 .00000011 00000-0 43519-4 0 4369 2 24278 098.5189 124.3685 0351403 101.5073 262.5737 13.52954549703039 SO-33 1 25509U 98061B 10314.61630327 .00000183 00000-0 24819-4 0 08340 2 25509 031.4314 040.4442 0353506 130.3332 232.8720 14.28337170629001 RS-22 1 27939U 03042A 10316.01423986 .00000217 00000-0 50498-4 0 7148 2 27939 097.8675 175.0509 0012877 316.4871 043.5335 14.63474823380574 VO-52 1 28650U 05017B 10315.20708944 .00000057 00000-0 13596-4 0 6434 2 28650 097.6729 002.7589 0027466 153.3685 206.8921 14.81845392298462 SO-67 1 35870U 09049F 10316.00379573 .00000840 00000-0 40689-4 0 2794 2 35870 097.3131 001.0849 0002070 331.6905 112.5213 15.21166767 63924 HO-68 1 36122U 09072B 10316.00790131 -.00000045 00000-0 00000 0 0 8396 2 36122 100.4499 014.8140 0007734 003.3631 356.7521 13.16281271 43668 UO-11 1 14781U 84021B 10314.81741799 .00000054 00000-0 14197-4 0 3888 2 14781 098.0373 006.8497 0009881 120.8480 239.3673 14.79855198433499 AO-16 1 20439U 90005D 10314.79482016 .00000007 00000-0 18298-4 0 00415 2 20439 098.3535 267.0767 0011899 090.9450 269.3099 14.31881880086366 LO-19 1 20442U 90005G 10314.83896404 .00000032 00000-0 27214-4 0 09521 2 20442 098.3161 272.3325 0012914 086.0104 274.2564 14.32111203086543 AO-27 1 22825U 93061C 10314.81159532 .00000096 00000-0 54445-4 0 06720 2 22825 098.5042 259.0871 0007869 193.1970 166.9021 14.29315246892990 IO-26 1 22826U 93061D 10314.85071924 .00000000 00000-0 16769-4 0 04127 2 22826 098.4985 259.6742 0008741 187.0652 173.0409 14.29572849893116 GO-32 1 25397U 98043D 10315.10902807 .00000026 00000-0 29547-4 0 3293 2 25397 098.3175 314.4962 0001440 150.3156 209.8095 14.23189248640948 NO-44 1 26931U 01043C 10314.77038555 -.00000087 00000-0 -17735-5 0 06057 2 26931 067.0514 186.3043 0005702 273.7453 086.2972 14.29619606475707 SO-50 1 27607U 02058C 10315.40973516 .00000234 00000-0 58688-4 0 3152 2 27607 064.5591 269.3216 0047074 017.4188 342.8542 14.71601564424041 CO-55 1 27844U 03031E 10315.99015735 .00000080 00000-0 57399-4 0 9761 2 27844 098.7092 322.8511 0010436 102.2505 257.9846 14.20744570382078 CO-57 1 27848U 03031J 10315.97102851 .00000084 00000-0 59308-4 0 9248 2 27848 098.7148 321.9572 0010435 107.2263 253.0056 14.20533601382022 AO-51 1 28375U 04025K 10315.45536877 .00000059 00000-0 30532-4 0 8216 2 28375 098.0745 300.6706 0084890 010.9685 349.3329 14.40708753334710 GENESAT1 1 29655U 06058C 10216.61700559 .10637092 69904-5 33715-3 0 2265 2 29655 040.0059 067.3006 0005079 297.8744 064.7087 16.44862838207776 CP3 1 31129U 07012N 10316.06954641 .00000384 00000-0 98282-4 0 7213 2 31129 097.9247 347.6099 0103229 134.6738 226.3000 14.52332816189324 CO-65 1 32785U 08021C 10314.30157455 .00000572 00000-0 79129-4 0 08338 2 32785 097.8806 017.0753 0015058 165.3430 194.8204 14.81759199137125 KKS-1 1 33493U 09002B 10316.00575199 .00000663 00000-0 92030-4 0 297 2 33493 098.1022 076.9175 0020409 026.6190 333.6061 14.81189027 97368 SOHLA-1 1 33496U 09002E 10315.37292242 .00000164 00000-0 35922-4 0 2525 2 33496 098.0686 062.6285 0007673 093.6322 266.5756 14.69531518 96499 TISAT-1 1 36799U 10035E 10316.03277680 .00000473 00000-0 69386-4 0 3036 2 36799 098.1318 016.8724 0014248 257.6872 102.2733 14.80224668 18187 STUDSAT 1 36801U 10035G 10316.21138011 .00001273 00000-0 17621-3 0 900 2 36801 098.1348 016.9504 0013052 246.8263 113.1575 14.79785910 18205 NOAA-10 1 16969U 86073A 10314.72381942 -.00000085 00000-0 -16773-4 0 02705 2 16969 098.6429 342.2236 0012641 140.6252 219.5816 14.27432792256485 NOAA-11 1 19531U 88089A 10314.68953467 -.00000143 00000-0 -51601-4 0 02786 2 19531 098.7655 041.1900 0012307 089.2168 271.0435 14.14940866141857 NOAA-12 1 21263U 91032A 10314.75297392 .00000074 00000-0 49808-4 0 07725 2 21263 098.7620 327.8767 0013318 100.0901 260.1771 14.25665885013283 MET-3/5 1 21655U 91056A 10314.79999827 .00000051 00000-0 10000-3 0 09629 2 21655 082.5595 205.0468 0013581 348.6432 011.4356 13.17027586924979 MET-2/21 1 22782U 93055A 10315.66634469 -.00000015 00000-0 -26826-4 0 9353 2 22782 082.5441 135.4574 0022224 352.9512 007.1326 13.83649507868473 OKEAN-4 1 23317U 94066A 10315.89859356 .00000298 00000-0 33567-4 0 3917 2 23317 082.5423 215.9780 0023627 113.0043 247.3678 14.82890678868345 NOAA-14 1 23455U 94089A 10314.70910372 -.00000037 00000-0 39507-5 0 02608 2 23455 098.8699 034.3603 0009336 174.9873 185.1414 14.13799010818207 NOAA-15 1 25338U 98030A 10314.84904820 .00000119 00000-0 69577-4 0 05888 2 25338 098.6344 299.2588 0010893 013.3113 346.8344 14.24865272649634 RESURS 1 25394U 98043A 10314.54774439 .00000023 00000-0 27379-4 0 06498 2 25394 098.3010 324.6349 0001784 120.7590 239.3759 14.24215115641185 FENGYUN1 1 25730U 99025A 10315.44730401 .00001258 00000-0 75833-3 0 1813 2 25730 098.7995 276.6655 0019899 209.4742 150.5356 14.08395143592411 OKEAN-0 1 25860U 99039A 10314.53577532 .00000097 00000-0 22206-4 0 01485 2 25860 097.8533 282.4231 0001238 045.7158 314.4151 14.73679815608457 NOAA-16 1 26536U 00055A 10316.05236565 .00000178 00000-0 12156-3 0 664 2 26536 099.1628 336.9572 0009809 283.2852 076.7247 14.12584619522700 NOAA-17 1 27453U 02032A 10314.76019264 -.00000025 00000-0 73238-5 0 00551 2 27453 098.4122 359.1613 0012678 070.8742 289.3808 14.24206944435566 NOAA-18 1 28654U 05018A 10314.76265235 .00000367 00000-0 22729-3 0 05452 2 28654 098.9681 260.7156 0014439 003.6246 356.5022 14.11407582282117 NOAA-19 1 33591U 09005A 10314.85356473 -.00000135 00000-0 -50715-4 0 07413 2 33591 098.8044 253.9473 0013371 232.5476 127.4495 14.11099597090594 HUBBLE 1 20580U 90037B 10315.25682231 .00000589 00000-0 32150-4 0 6740 2 20580 028.4709 359.6735 0003076 323.1425 036.8970 15.01086716926871 ISS 1 25544U 98067A 10316.38599537 .00024931 00000-0 18492-3 0 2629 2 25544 051.6453 192.2553 0007844 187.4989 171.9411 15.72692273686774 CO-58 1 28895U 05043F 10315.40546720 .00000327 00000-0 77431-4 0 7257 2 28895 097.9937 194.8261 0017912 180.1255 179.9918 14.59961430268463 FALCON 1 30776U 07006E 10314.94227193 .00000962 00000-0 71361-4 0 09676 2 30776 035.4338 233.1511 0001401 333.6075 026.4575 15.03936037202167 MAST 1 31126U 07012K 10314.56511430 .00000275 00000-0 72072-4 0 00084 2 31126 097.9219 348.8831 0095030 130.5643 230.3900 14.53640389189329 CAPE1 1 31130U 07012P 10315.99791442 .00000248 00000-0 67373-4 0 291 2 31130 097.9215 347.3636 0103701 135.2832 225.6768 14.52248903189115 COMPASS 1 32787U 08021E 10315.96935591 .00000731 00000-0 98572-4 0 8282 2 32787 097.8781 018.5670 0015819 160.8655 199.3106 14.82035921137387 AAUSAT2 1 32788U 08021F 10315.89020726 .00000829 00000-0 11050-3 0 8171 2 32788 097.8789 018.6515 0015398 161.4675 198.7072 14.82189331137386 DO-64 1 32789U 08021G 10315.88089186 .00001231 00000-0 15996-3 0 8346 2 32789 097.8853 019.2958 0015850 160.1800 200.0108 14.82419852137387 CO-66 1 32791U 08021J 10314.32577096 .00000083 00000-0 17214-4 0 08192 2 32791 097.8802 016.9437 0015920 164.6765 195.4924 14.81789807137097 RS-30 1 32953U 08025A 10316.06860192 .00000010 00000-0 00000 0 0 2083 2 32953 082.4988 297.7209 0019509 136.1000 224.1632 12.43009222112115 TACSAT-3 1 35001U 09028A 10314.74981748 .00007524 00000-0 16749-3 0 04426 2 35001 040.4545 052.7320 0022552 019.6686 340.4996 15.43502525083271 PHARMSAT 1 35002U 09028B 10315.56696832 .00006930 00000-0 15263-3 0 4010 2 35002 040.4686 045.3982 0024696 028.4528 331.7625 15.43855331 83429 HAWKSAT1 1 35003U 09028C 10315.55687047 .00016817 00000-0 30487-3 0 4355 2 35003 040.4580 034.9094 0022704 051.3050 308.9791 15.48887113 83545 CP6 1 35004U 09028D 10316.21829784 .00021143 00000-0 36062-3 0 4348 2 35004 040.4594 028.4353 0021720 062.1650 298.1441 15.50525360 83661 AEROCUB3 1 35005U 09028E 10316.24390009 .00149423 00000-0 11914-2 0 5177 2 35005 040.4648 012.6913 0022667 094.3489 265.9928 15.69527473 83846 CASTOR 1 35694U 09038F 10230.44082147 .07179566 12689-4 99310-4 0 6559 2 35694 051.5930 222.0149 0004218 308.0851 053.0105 16.48877011 61107 METEOR-M 1 35865U 09049A 10316.05541018 .00000176 00000-0 10000-3 0 8261 2 35865 098.7396 008.6516 0002395 321.9339 038.1664 14.21832865 59738 RS-38 1 35869U 09049E 10316.08099551 .00000177 00000-0 10000-3 0 8382 2 35869 098.7381 008.7174 0004079 307.5985 052.4797 14.21993052 59748 /EX